This is the latest recevied weather packets stored in our database for station/object IW1RID-3. If no packets are shown the sender has not sent any weather packets the latest 10 day(s).
| Time | Temp. | Humidity | Pressure | Rain* | Wind** | Luminosity | Snow |
|---|---|---|---|---|---|---|---|
| 1788108557 | 29.44° C | 55% | 1072.3 hPa | - | - | - | - |
| 1788107351 | 30° C | 53% | 1072.5 hPa | - | - | - | - |
| 1788106145 | 31.11° C | 48% | 1072.4 hPa | - | - | - | - |
| 1788104939 | 31.11° C | 45% | 1072.6 hPa | - | - | - | - |
| 1788103733 | 31.67° C | 46% | 1072.5 hPa | - | - | - | - |
| 1788102529 | 32.22° C | 47% | 1072.6 hPa | - | - | - | - |
| 1788101324 | 32.22° C | 48% | 1072.7 hPa | - | - | - | - |
| 1788100119 | 32.22° C | 45% | 1072.8 hPa | - | - | - | - |
| 1788098914 | 31.11° C | 49% | 1073.1 hPa | - | - | - | - |
| 1788097709 | 30.56° C | 53% | 1073.1 hPa | - | - | - | - |
| 1788096504 | 30.56° C | 53% | 1073.2 hPa | - | - | - | - |
| 1788095299 | 30.56° C | 55% | 1073.2 hPa | - | - | - | - |
| 1788094093 | 30.56° C | 56% | 1073.2 hPa | - | - | - | - |
| 1788093924 | 30.56° C | 55% | 1073.3 hPa | - | - | - | - |
| 1788092719 | 29.44° C | 55% | 1073.2 hPa | - | - | - | - |
| 1788091513 | 29.44° C | 60% | 1073.1 hPa | - | - | - | - |
| 1788090309 | 28.33° C | 61% | 1073 hPa | - | - | - | - |
| 1788089104 | 28.89° C | 57% | 1073.1 hPa | - | - | - | - |
| 1788086693 | 27.78° C | 53% | 1073.2 hPa | - | - | - | - |
| 1788085488 | 28.33° C | 51% | 1073.2 hPa | - | - | - | - |
| 1788084283 | 28.33° C | 46% | 1073.3 hPa | - | - | - | - |
| 1788083078 | 28.33° C | 47% | 1073.4 hPa | - | - | - | - |
| 1788081874 | 27.78° C | 48% | 1073.6 hPa | - | - | - | - |
| 1788080669 | 27.22° C | 48% | 1073.6 hPa | - | - | - | - |
| 1788079464 | 26.11° C | 53% | 1073.5 hPa | - | - | - | - |
* Rain since midnight (hover to see other rain measurements)
** Current wind speed in m/s (hover to see current wind gust speed)